Location: Blackwall
(51.5097°N, 0.0016°W)
Time: 23:34:54
(UTC+00:00)

Nadezhda 4 Rocket - Pass Details

Date: 15 May 2026
Orbit: 948 x 991 km, 82.9° (Epoch: 11 June)

Event Time Altitude Azimuth Distance (km) Brightness Sun altitude
Rises 22:06:48 0° 347° (NNW) 3,634 8.6 -15.5°
Reaches altitude 10° 22:09:20 10° 344° (NNW) 2,685 7.6 -15.7°
Maximum altitude 22:15:19 57° 267° (W) 1,114 4.4 -16.1°
Enters shadow 22:20:01 17° 194° (SSW) 2,228 5.4 -16.4°
